Home > Weather > Nagercoil > Past weeks

Flag for India Past Weather in Nagercoil, Tamil Nadu, India — Yesterday and Last 2 Weeks

Now
84 °F

Scattered clouds.


Feels Like: 94 °F
Forecast: 77 / 85 °F
Wind: 9 mph from West

Location: Thiruvananthapuram

Current Time: Jul 27, 2016 at 11:22:49 AM

Latest Report: Jul 27, 2016 at 11:00 AM


Visibility: 4 mi

Pressure: 29.77 "Hg

Humidity: 79%

Dew Point: 77 °F

Location of NagercoilLocation

Past Weather in Nagercoil — Graph

°F

Nagercoil Temperature Yesterday

Maximum temperature yesterday: 84 °F (at 10:00 AM)
Minimum temperature yesterday: 79 °F (at 12:30 AM)
Average temperature yesterday: 81 °F

High & Low Weather Summary for the Past Weeks

 TemperatureHumidityPressure
High88 °F (Jul 12, 2:00 PM)94% (Jul 12, 6:00 PM)29.89 "Hg (Jul 12, 6:00 PM)
Low73 °F (Jul 12, 6:00 PM)62% (Jul 14, 12:30 PM)29.68 "Hg (Jul 25, 3:30 PM)
Average81 °F84%29.78 "Hg
* Reported Jul 12 9:30 AM — Jul 27 10:00 AM, Nagercoil, Weather by CustomWeather, © 2016

Note: Actual official high and low records may vary slightly from our data, if they occured in-between our weather recording intervals... More about our weather records

Advertising

Nagercoil Weather History for the Previous 24 Hours

Scroll right to see more
 ConditionsComfort  
Time TempWeatherWind HumidityBarometerVisibility
10:00 AM
Wed, Jul 27
84 °FScattered clouds.8 mph79%29.77 "Hg4 mi
9:30 AM84 °FScattered clouds.9 mph79%29.77 "Hg3 mi
9:00 AM82 °FBroken clouds.9 mph84%29.77 "Hg3 mi
8:30 AM81 °FScattered clouds.7 mph89%29.68 "Hg2 mi
8:00 AM79 °FBroken clouds.5 mph94%29.77 "Hg2 mi
7:30 AM79 °FDrizzle. More clouds than sun.6 mph89%29.77 "Hg2 mi
7:00 AM79 °FRain. More clouds than sun.6 mph89%29.77 "Hg1 mi
6:30 AM79 °FPassing clouds.3 mph89%29.74 "Hg1 mi
5:30 AM79 °FPassing clouds.3 mph89%29.71 "Hg2 mi
4:30 AM79 °FPartly cloudy.5 mph89%29.71 "Hg1 mi
3:30 AM79 °FPartly cloudy.6 mph94%29.68 "Hg1 mi
2:30 AM79 °FPartly cloudy.6 mph94%29.71 "Hg1 mi
2:00 AM79 °FPartly cloudy.5 mph94%29.71 "Hg1 mi
1:30 AM79 °FPartly cloudy.3 mph94%29.74 "Hg1 mi
12:30 AM79 °FPartly cloudy.5 mph94%29.74 "Hg1 mi
11:30 PM
Tue, Jul 26
79 °FPartly cloudy.5 mph94%29.77 "Hg1 mi
11:00 PM79 °FPartly cloudy.5 mph94%29.77 "Hg1 mi
10:30 PM79 °FPartly cloudy.8 mph94%29.80 "Hg1 mi
10:00 PM81 °FPartly cloudy.3 mph89%29.77 "Hg2 mi
9:00 PM81 °FPartly cloudy.3 mph89%29.77 "Hg2 mi
8:30 PM81 °FPartly cloudy.6 mph89%29.77 "Hg2 mi
8:00 PM81 °FPartly cloudy.6 mph89%29.74 "Hg2 mi
7:30 PM81 °FPartly cloudy.8 mph89%29.74 "Hg2 mi
7:00 PM81 °FBroken clouds.8 mph89%29.71 "Hg2 mi
6:30 PM81 °FBroken clouds.8 mph89%29.71 "Hg2 mi
6:00 PM81 °FBroken clouds.8 mph89%29.71 "Hg2 mi
5:30 PM81 °FBroken clouds.9 mph89%29.68 "Hg2 mi
5:00 PM81 °FBroken clouds.9 mph89%29.68 "Hg2 mi
4:30 PM81 °FBroken clouds.9 mph89%29.68 "Hg3 mi
4:00 PM81 °FBroken clouds.10 mph89%29.68 "Hg3 mi
3:30 PM81 °FBroken clouds.9 mph89%29.68 "Hg3 mi
3:00 PM82 °FScattered clouds.12 mph84%29.68 "Hg3 mi
2:30 PM84 °FScattered clouds.15 mph79%29.68 "Hg3 mi
2:00 PM84 °FScattered clouds.14 mph79%29.68 "Hg3 mi
1:30 PM84 °FScattered clouds.13 mph79%29.68 "Hg3 mi
1:00 PM84 °FScattered clouds.12 mph79%29.71 "Hg3 mi
12:30 PM82 °FBroken clouds.15 mph84%29.71 "Hg3 mi
12:00 PM84 °FBroken clouds.10 mph79%29.74 "Hg2 mi
11:30 AM82 °FBroken clouds.13 mph84%29.74 "Hg2 mi
11:00 AM82 °FBroken clouds.13 mph89%29.74 "Hg2 mi
Weather by CustomWeather, © 2016

See weather overviewHow to use our weather pages